Date String (YYYY-MM-DD hh:mm:ss) UTC,Instrument flags,Ambient pressure (hPa),Sample flow (lpm),Bypass flow (lpm),Sample temperature (°C),Ambient temperature (°C),ASC tube jacket temperature (°C),LED temperature (°C),Box temperature (°C),Sample RH (%),Span deviation,Mass concentration (μg/m³),Mass concentration (μg/m³),Mass concentration (μg/m³)
DateTimeUTC,F1_M11,P_M11,Q1_M11,Q2_M11,T1_M11,T2_M11,T3_M11,T4_M11,T5_M11,U1_M11,ZSPAN_M11,X0_M11,X2_M11,X1_M11
2021-10-25 03:00:00,,0824.0,5.01,0.00,29.8,29.0,00.0,39.0,31.5,11.4,0000.0,0013.08,0003.37,0002.01
2021-10-25 03:01:00,,0824.1,5.00,0.00,29.8,28.9,00.0,39.0,31.5,11.4,0000.0,0012.68,0003.33,0002.01
2021-10-25 03:02:00,,0824.1,4.99,0.00,29.8,28.9,00.0,39.0,31.5,11.4,0000.0,0013.34,0003.35,0002.01
2021-10-25 03:03:00,,0824.1,5.01,0.00,29.7,28.9,00.0,39.0,31.4,11.4,0000.0,0013.35,0003.38,0002.03
2021-10-25 03:04:00,,0824.1,4.99,0.00,29.7,28.9,00.0,38.9,31.4,11.4,0000.0,0013.26,0003.36,0002.04
2021-10-25 03:05:00,,0824.1,5.00,0.00,29.7,28.9,00.0,38.9,31.4,11.4,0000.0,0013.21,0003.31,0002.05
2021-10-25 03:06:00,,0824.1,5.00,0.00,29.7,28.9,00.0,38.9,31.4,11.4,0000.0,0012.35,0003.31,0002.06
2021-10-25 03:07:00,,0824.2,5.00,0.00,29.7,28.9,00.0,38.9,31.4,11.4,0000.0,0012.15,0003.34,0002.05
2021-10-25 03:08:00,,0824.2,5.00,0.00,29.7,28.9,00.0,38.9,31.4,11.4,0000.0,0011.91,0003.35,0002.05
2021-10-25 03:09:00,,0824.2,5.00,0.00,29.7,28.9,00.0,38.9,31.5,11.4,0000.0,0011.29,0003.36,0002.05
2021-10-25 03:10:00,,0824.2,5.01,0.00,29.7,28.9,00.0,38.9,31.5,11.4,0000.0,0011.74,0003.36,0002.05
2021-10-25 03:11:00,,0824.2,5.01,0.00,29.7,28.9,00.0,38.9,31.4,11.5,0000.0,0011.20,0003.36,0002.06
2021-10-25 03:12:00,,0824.2,5.02,0.00,29.7,28.9,00.0,38.9,31.4,11.4,0000.0,0011.90,0003.39,0002.06
2021-10-25 03:13:00,,0824.2,5.00,0.00,29.7,28.9,00.0,38.8,31.4,11.4,0000.0,0011.76,0003.41,0002.07
2021-10-25 03:14:00,,0824.2,5.00,0.00,29.7,28.9,00.0,38.8,31.4,11.5,0000.0,0011.62,0003.40,0002.07
2021-10-25 03:15:00,,0824.2,5.00,0.00,29.7,28.9,00.0,38.8,31.4,11.5,0000.0,0011.27,0003.42,0002.09
2021-10-25 03:16:00,,0824.2,5.00,0.00,29.7,28.9,00.0,38.8,31.4,11.5,0000.0,0010.69,0003.50,0002.09
2021-10-25 03:17:00,,0824.2,4.99,0.00,29.7,28.9,00.0,38.8,31.4,11.5,0000.0,0011.57,0003.52,0002.08
2021-10-25 03:18:00,,0824.2,5.00,0.00,29.6,28.8,00.0,38.8,31.4,11.5,0000.0,0012.76,0003.53,0002.09
2021-10-25 03:19:00,,0824.3,5.01,0.00,29.6,28.8,00.0,38.8,31.3,11.5,0000.0,0012.53,0003.50,0002.09
2021-10-25 03:20:00,,0824.2,5.00,0.00,29.6,28.9,00.0,38.8,31.3,11.5,0000.0,0012.56,0003.47,0002.07
2021-10-25 03:21:00,,0824.3,4.99,0.00,29.6,28.9,00.0,38.8,31.4,11.5,0000.0,0011.96,0003.43,0002.06
2021-10-25 03:22:00,,0824.4,5.01,0.00,29.7,28.9,00.0,38.8,31.4,11.5,0000.0,0011.89,0003.43,0002.06
2021-10-25 03:23:00,,0824.4,5.00,0.00,29.7,28.9,00.0,38.8,31.4,11.4,0000.0,0011.37,0003.45,0002.06
2021-10-25 03:24:00,,0824.5,5.00,0.00,29.7,28.9,00.0,38.8,31.4,11.4,0000.0,0011.01,0003.44,0002.04
2021-10-25 03:25:00,,0824.4,5.00,0.00,29.7,29.0,00.0,38.8,31.4,11.2,0000.0,0011.47,0003.43,0002.02
2021-10-25 03:26:00,,0824.5,4.99,0.00,29.7,29.0,00.0,38.8,31.4,11.1,0000.0,0012.42,0003.40,0002.00
2021-10-25 03:27:00,,0824.5,5.01,0.00,29.7,29.0,00.0,38.8,31.5,11.1,0000.0,0012.23,0003.33,0002.00
2021-10-25 03:28:00,,0824.4,5.00,0.00,29.7,29.0,00.0,38.8,31.4,11.1,0000.0,0011.19,0003.30,0002.00
2021-10-25 03:29:00,,0824.4,5.00,0.00,29.7,29.0,00.0,38.8,31.4,11.0,0000.0,0009.96,0003.27,0001.99
2021-10-25 03:30:00,,0824.3,5.01,0.00,29.8,29.0,00.0,38.8,31.5,11.1,0000.0,0009.86,0003.28,0001.99
2021-10-25 03:31:00,,0824.4,5.00,0.00,29.8,29.0,00.0,38.8,31.5,11.1,0000.0,0009.83,0003.29,0001.98
2021-10-25 03:32:00,,0824.3,5.01,0.00,29.8,29.0,00.0,38.8,31.5,11.1,0000.0,0009.68,0003.30,0001.98
2021-10-25 03:33:00,,0824.4,4.99,0.00,29.8,29.1,00.0,38.8,31.5,11.2,0000.0,0009.68,0003.27,0001.98
2021-10-25 03:34:00,,0824.3,5.01,0.00,29.8,29.1,00.0,38.8,31.6,11.1,0000.0,0009.45,0003.22,0001.96
2021-10-25 03:35:00,,0824.3,5.00,0.00,29.8,29.1,00.0,38.8,31.6,11.1,0000.0,0009.51,0003.22,0001.98
2021-10-25 03:36:00,,0824.3,5.00,0.00,29.8,29.1,00.0,38.9,31.6,11.2,0000.0,0008.80,0003.21,0001.98
2021-10-25 03:37:00,,0824.3,4.99,0.00,29.8,29.1,00.0,38.9,31.6,11.2,0000.0,0008.58,0003.24,0001.98
2021-10-25 03:38:00,,0824.3,5.00,0.00,29.8,29.1,00.0,38.9,31.6,11.1,0000.0,0009.09,0003.28,0001.98
2021-10-25 03:39:00,,0824.5,5.00,0.00,29.8,29.1,00.0,38.9,31.6,11.1,0000.0,0009.15,0003.28,0001.97
2021-10-25 03:40:00,,0824.2,5.00,0.00,29.8,29.1,00.0,38.9,31.6,11.1,0000.0,0009.35,0003.26,0001.95
2021-10-25 03:41:00,,0824.2,4.99,0.00,29.9,29.1,00.0,38.9,31.6,11.0,0000.0,0009.53,0003.23,0001.94
2021-10-25 03:42:00,,0824.2,5.00,0.00,29.9,29.1,00.0,38.9,31.6,11.0,0000.0,0009.46,0003.21,0001.94
2021-10-25 03:43:00,,0824.1,5.01,0.00,29.9,29.1,00.0,38.9,31.6,11.0,0000.0,0009.45,0003.21,0001.95
2021-10-25 03:44:00,,0824.1,5.01,0.00,29.9,29.1,00.0,38.9,31.6,11.0,0000.0,0009.29,0003.21,0001.96
2021-10-25 03:45:00,,0824.0,5.00,0.00,29.9,29.1,00.0,38.9,31.6,11.0,0000.0,0009.67,0003.22,0001.97
2021-10-25 03:46:00,,0824.0,5.00,0.00,29.9,29.1,00.0,38.9,31.6,11.1,0000.0,0009.54,0003.22,0001.97
2021-10-25 03:47:00,,0824.1,5.02,0.00,29.9,29.1,00.0,38.9,31.6,11.1,0000.0,0010.09,0003.23,0001.97
2021-10-25 03:48:00,,0824.1,5.00,0.00,29.9,29.1,00.0,38.9,31.6,11.2,0000.0,0009.93,0003.25,0001.99
2021-10-25 03:49:00,,0824.0,4.99,0.00,29.9,29.1,00.0,38.9,31.6,11.2,0000.0,0009.07,0003.20,0001.98
2021-10-25 03:50:00,,0824.0,5.01,0.00,29.9,29.0,00.0,38.9,31.6,11.2,0000.0,0009.74,0003.21,0002.00
2021-10-25 03:51:00,,0824.0,5.01,0.00,29.8,29.0,00.0,38.9,31.6,11.2,0000.0,0009.82,0003.24,0002.01
2021-10-25 03:52:00,,0824.0,5.00,0.00,29.8,29.0,00.0,38.9,31.6,11.2,0000.0,0009.89,0003.23,0002.03
2021-10-25 03:53:00,,0824.1,5.00,0.00,29.8,29.0,00.0,38.9,31.5,11.2,0000.0,0010.22,0003.27,0002.04
2021-10-25 03:54:00,,0824.1,5.00,0.00,29.8,29.0,00.0,38.9,31.5,11.2,0000.0,0010.39,0003.25,0002.05
2021-10-25 03:55:00,,0824.1,4.99,0.00,29.8,29.0,00.0,38.9,31.5,11.1,0000.0,0011.09,0003.22,0002.04
2021-10-25 03:56:00,,0824.1,5.00,0.00,29.8,29.0,00.0,38.9,31.5,11.0,0000.0,0011.06,0003.22,0002.03
2021-10-25 03:57:00,,0824.1,5.01,0.00,29.8,29.0,00.0,38.9,31.5,10.9,0000.0,0010.76,0003.23,0002.04
2021-10-25 03:58:00,,0824.1,5.00,0.00,29.8,29.0,00.0,38.9,31.5,10.9,0000.0,0010.58,0003.21,0002.03
2021-10-25 03:59:00,,0824.1,4.99,0.00,29.8,29.0,00.0,38.9,31.5,10.9,0000.0,0010.39,0003.22,0002.02
